Atqasuk Edward Burnell Sr Mem, AK

2:02 PM AKST on December 16, 2017 (GMT -0900)
Atqasuk Edward Burnell Sr Mem

Weather History for PATQ - August, 2014

Change the Weather History Date:

Sunday, August 17, 2014

  Actual Average (PABR) Record (PABR)
Temperature  
Mean Temperature 51 °F -  
Max Temperature 61 °F 43 °F 73 °F (1923)
Min Temperature 41 °F 33 °F 24 °F (1980)
Degree Days  
Heating Degree Days 14    
Growing Degree Days 1 (Base 50)    
Moisture  
Dew Point 47 °F    
Average Humidity 93    
Maximum Humidity 100    
Minimum Humidity 72    
Precipitation  
Precipitation 0.00 in - - ()
Sea Level Pressure  
Sea Level Pressure 29.56 in    
Wind  
Wind Speed 10 mph (NE)    
Max Wind Speed 15 mph    
Max Gust Speed -    
Visibility 9 miles    
Events Rain    
Averages and records for this station are not official NWS values.
T = Trace of Precipitation, MM = Missing Value Source: NWS Daily Summary

Daily Weather History Graph

Daily Weather History Graph

Search for Another Location

Airport or City:

Trip Planner

Search our weather history database for the weather conditions in past years. The results will help you decide how hot, cold, wet, or windy it might be!

Date:

Astronomy

Aug. 17, 2014 Rise Set
Actual Time 5:32 AM AKDT 11:31 PM AKDT
Civil Twilight 3:04 AM AKDT 1:42 AM AKDT
Nautical Twilight Sun does not rise Sun does not rise
Astronomical Twilight Sun does not rise Sun does not rise
Moon 10:44 PM AKDT (8/17) 6:50 PM AKDT (8/17)
Length of Visible Light 22h 37m
Length of Day
17h 59m
Waning Gibbous, 47% of the Moon is Illuminated
Aug 17
Waning Gibbous
Aug 25
New
Sep 2
First Quarter
Sep 8
Full
Sep 15
Last Quarter

Hourly Weather History & Observations

Time (AKDT) Temp. Windchill Dew Point Humidity Pressure Visibility Wind Dir Wind Speed Gust Speed Precip Events Conditions
12:03 AM 42.8 °F 35.8 °F 42.8 °F 100% 29.53 in 6.0 mi ENE 13.8 mph - N/A   Partly Cloudy
12:14 AM 42.8 °F 35.4 °F 42.8 °F 100% 29.52 in 1.8 mi ENE 15.0 mph - N/A   Mostly Cloudy
12:16 AM 42.8 °F 35.8 °F 42.8 °F 100% 29.52 in 0.8 mi ENE 13.8 mph - N/A   Mostly Cloudy
12:26 AM 42.8 °F 35.8 °F 42.8 °F 100% 29.52 in 1.2 mi ENE 13.8 mph - N/A   Mostly Cloudy
12:28 AM 42.8 °F 35.4 °F 42.8 °F 100% 29.52 in 3.0 mi ENE 15.0 mph - N/A   Mostly Cloudy
12:36 AM 42.8 °F 35.8 °F 42.8 °F 100% 29.53 in 7.0 mi ENE 13.8 mph - N/A   Scattered Clouds
12:56 AM 41.9 °F 35.0 °F 41.9 °F 100% 29.55 in 10.0 mi East 12.7 mph - N/A   Clear
1:56 AM 43.0 °F 37.2 °F 43.0 °F 100% 29.54 in 10.0 mi ENE 10.4 mph - N/A   Overcast
2:56 AM 45.0 °F 40.6 °F 45.0 °F 100% 29.55 in 10.0 mi East 8.1 mph - N/A   Overcast
3:56 AM 45.9 °F 43.6 °F 45.9 °F 100% 29.55 in 10.0 mi East 4.6 mph - 0.00 in Rain Light Rain
4:56 AM 45.9 °F 44.6 °F 45.9 °F 100% 29.55 in 10.0 mi Variable 3.5 mph - 0.00 in   Overcast
5:56 AM 45.0 °F 40.6 °F 45.0 °F 100% 29.55 in 10.0 mi East 8.1 mph - N/A   Overcast
6:56 AM 43.0 °F 38.8 °F 43.0 °F 100% 29.55 in 10.0 mi SE 6.9 mph - N/A   Mostly Cloudy
7:56 AM 43.9 °F 40.5 °F 43.9 °F 100% 29.55 in 10.0 mi SSE 5.8 mph - N/A   Mostly Cloudy
8:56 AM 47.8 °F - 47.8 °F 100% 29.55 in 10.0 mi South 5.8 mph - N/A   Scattered Clouds
9:56 AM 50.0 °F - 48.2 °F 94% 29.54 in 10.0 mi SSE 5.8 mph - N/A   Overcast
10:56 AM 50.9 °F - 48.9 °F 93% 29.56 in 10.0 mi SSW 4.6 mph - N/A   Overcast
11:56 AM 52.0 °F - 48.9 °F 89% 29.56 in 10.0 mi Calm Calm - N/A   Overcast
12:56 PM 54.0 °F - 50.0 °F 86% 29.57 in 10.0 mi WNW 4.6 mph - N/A   Overcast
1:56 PM 54.9 °F - 50.0 °F 84% 29.57 in 10.0 mi NW 4.6 mph - N/A   Overcast
2:56 PM 55.9 °F - 50.9 °F 83% 29.57 in 10.0 mi WNW 4.6 mph - N/A   Overcast
3:56 PM 57.9 °F - 50.9 °F 77% 29.57 in 10.0 mi WNW 3.5 mph - N/A   Overcast
4:56 PM 61.0 °F - 52.0 °F 72% 29.57 in 10.0 mi WNW 8.1 mph - N/A   Partly Cloudy
5:56 PM 61.0 °F - 52.9 °F 75% 29.57 in 10.0 mi North 6.9 mph - N/A   Partly Cloudy
6:56 PM 59.9 °F - 52.9 °F 78% 29.57 in 10.0 mi North 8.1 mph - N/A   Clear
7:56 PM 57.9 °F - 52.0 °F 81% 29.58 in 10.0 mi NNW 6.9 mph - N/A   Partly Cloudy
8:56 PM 54.9 °F - 50.9 °F 86% 29.59 in 10.0 mi North 6.9 mph - N/A   Clear
9:56 PM 52.9 °F - 50.0 °F 90% 29.60 in 10.0 mi NNE 6.9 mph - N/A   Scattered Clouds
10:56 PM 47.8 °F - 46.9 °F 97% 29.59 in 10.0 mi North 9.2 mph - N/A   Mostly Cloudy
11:56 PM 45.9 °F 42.3 °F 45.9 °F 100% 29.60 in 10.0 mi NE 6.9 mph - N/A   Mostly Cloudy